Content
SEND FEEDBACK

Daily
Averages
Monthly
Summary
Canada

STRATFORD, ONTARIO


Home > North America > Canada > Ontario
Elevation: 1161 feet     Latitude: 43 24N     Longitude: 081 00W

WEATHER
 
SELECT A DAY
Number of Records: 191,382;   Date Range: 1/1/95 - 8/19/14
 
SHARE

PRINT THIS DATA

[ ← Previous Day ]
WEATHER ALMANAC - MAY 9, 2013
[ Next Day → ]
[ °C ]   °F
Weather ElementAverageHighLow
Temperature64.5 °F75.2 °F (2:00 pm)53.6 °F (7:00 am)
Dewpoint51.7 °F59 °F (9:00 am)41 °F (3:00 pm)
Humidity69.5 %100 % (1:00 am)25 % (2:00 pm)
Barometer29.95 in29.98 in (9:00 am)29.92 in (5:00 am)
Wind Speed4.8 mph12.7 mph (2:00 pm)
Wind Gust18.4 mph (4:00 pm)
Weather ElementAverage
Visibility13 mi
Wind DirectionSW (222.9 °)

Weather ElementTotal
Precipitation---
Heating Degree Days0.6 (Base 65)
Growing Degree Days14.4 (Base 50)
Averaged from 28 records on May 9, 2013
WEATHER CONDITIONS BREAKOUT
WIND DIRECTION BREAKOUT
WEATHER BY HOUR - MAY 9, 2013
[ °C ]   °F
Local TimeTemperatureDewpointHumidityBarometerVisibilityWind DirectionWind SpeedGust SpeedPrecipitationEventsConditions
1:00 AM57.2 °F57.2 °F100 %29.96 in12.0 miCalmMostly Cloudy
2:00 AM56.0 °F56.0 °F100 %29.95 in7.0 miNNE (20°)2.3 mphOvercast
2:00 AM57.2 °F57.2 °F100 %29.95 in7.0 miNNE (30°)2.3 mphOvercast
3:00 AM57.2 °F57.2 °F100 %29.94 in7.0 miCalmOvercast
4:00 AM57.2 °F57.2 °F100 %29.93 in7.0 miNNW (330°)2.3 mphOvercast
5:00 AM57.2 °F57.2 °F100 %29.92 in12.0 miENE (60°)2.3 mphMostly Cloudy
5:40 AM55.4 °F55.4 °F100 %29.92 in10.0 miCalmMostly Cloudy
6:00 AM55.4 °F55.4 °F100 %29.92 in12.0 miWNW (290°)3.5 mphMostly Cloudy
7:00 AM53.6 °F53.6 °F100 %29.95 in15.0 miCalmMostly Cloudy
8:00 AM58.0 °F57.0 °F97 %29.97 in15.0 miWNW (300°)3.5 mph
8:00 AM57.2 °F57.2 °F100 %29.97 in15.0 miWNW (300°)3.5 mphMostly Cloudy
9:00 AM60.8 °F59.0 °F94 %29.98 in12.0 miWNW (300°)5.8 mphScattered Clouds
9:27 AM62.6 °F57.2 °F82 %29.97 in12.0 miNNW (340°)2.3 mphMostly Cloudy
10:00 AM64.4 °F59.0 °F83 %29.97 in12.0 miWNW (300°)3.5 mphScattered Clouds
11:00 AM69.8 °F55.4 °F60 %29.97 in15.0 miNW (310°)5.8 mphScattered Clouds
12:00 PM71.6 °F50.0 °F46 %29.97 in15.0 miNW (320°)8.1 mphPartly Cloudy
1:00 PM73.4 °F44.6 °F36 %29.96 in15.0 miNorth (360°)5.8 mphPartly Cloudy
2:00 PM75.0 °F46.0 °F25 %29.96 in15.0 miWNW (290°)9.2 mph
2:00 PM75.2 °F46.4 °F36 %29.96 in15.0 miWNW (290°)12.7 mphScattered Clouds
3:00 PM75.2 °F41.0 °F29 %29.96 in15.0 miWNW (300°)9.2 mphPartly Cloudy
4:00 PM75.2 °F42.8 °F31 %29.94 in15.0 miNW (310°)10.4 mph18.4 mphScattered Clouds
5:00 PM75.2 °F42.8 °F31 %29.94 in15.0 miNW (310°)10.4 mphMostly Cloudy
6:00 PM73.4 °F42.8 °F33 %29.94 in15.0 miNNW (340°)11.5 mphMostly Cloudy
7:00 PM73.4 °F42.8 °F33 %29.93 in15.0 miWNW (300°)4.6 mphMostly Cloudy
8:00 PM69.8 °F50.0 °F49 %29.94 in15.0 miWest (260°)3.5 mphMostly Cloudy
9:00 PM66.2 °F51.8 °F60 %29.96 in15.0 miSW (220°)6.9 mphOvercast
10:00 PM62.6 °F48.2 °F59 %29.96 in15.0 miSouth (180°)2.3 mphMostly Cloudy
11:00 PM60.8 °F48.2 °F63 %29.96 in15.0 miSouth (180°)3.5 mphMostly Cloudy
Hourly data recorded from CYXU, located miles away from Stratford, Ontario







STORIES FROM OUR PARTNERS